Vorticity
5 5 5 4 4 4 4 4 5 5 6 6 7 8 9 10 11 12 12 13 14 14 15 16 16 16 16 16 15 14 13 12 12 11 10 10 10 9 9 9 10 11 11 11 12 12 12 12 13 13 13 13 15 17 18 18 16 13 11 10 10 11 12 13 13 13 12 11 8
5 4 4 4 4 4 4 5 5 5 5 6 7 8 9 10 11 12 12 13 14 14 14 15 15 15 14 14 13 13 12 11 10 10 10 10 9 9 9 10 11 12 12 12 12 12 12 13 14 15 15 16 18 19 18 16 11 8 7 7 9 11 12 12 9 6 3 -1 -4
5 5 5 5 5 5 5 5 5 5 5 5 6 7 8 9 10 11 11 12 12 13 14 14 14 13 13 12 12 11 11 10 10 10 10 10 9 10 10 11 12 13 14 13 13 14 15 16 17 18 18 18 18 16 13 10 7 5 5 6 7 7 6 3 0 -1 -1 -0 2
5 6 6 6 6 6 6 6 6 6 6 6 7 8 8 9 10 10 11 11 12 13 13 13 12 12 12 11 11 11 11 11 11 10 10 10 10 11 12 13 14 14 14 14 15 17 19 19 19 20 19 17 14 11 9 7 6 6 6 6 4 2 0 -1 1 3 5 7 8
7 7 7 7 8 7 7 7 7 7 7 8 8 9 10 10 11 12 13 13 14 13 13 12 12 11 11 11 10 10 11 11 11 11 10 10 11 12 14 15 15 15 15 17 18 20 21 20 18 17 15 13 10 8 7 6 5 5 5 4 5 5 5 6 8 9 11 11 10
9 9 10 10 9 9 9 9 9 9 9 9 10 10 11 12 13 14 15 15 14 14 13 13 12 12 11 11 11 11 11 10 10 10 11 12 12 14 15 16 16 17 18 20 20 20 20 18 14 12 9 7 6 5 5 6 7 7 8 8 9 9 9 10 10 11 10 9 7
9 10 11 11 10 10 9 9 9 9 9 9 10 11 13 14 16 17 17 16 15 15 14 14 13 13 13 12 12 11 11 10 10 11 12 13 14 15 16 16 18 19 20 20 19 18 16 13 9 7 6 4 4 5 5 6 7 7 8 8 7 7 6 6 6 6 5 5 5
9 10 10 10 10 9 9 9 9 9 9 10 12 14 15 17 18 18 18 17 17 16 15 15 14 14 13 13 12 11 10 9 10 12 14 15 15 16 17 18 19 20 20 20 17 15 14 12 10 7 6 4 4 4 4 3 2 1 1 0 0 -1 -1 -1 0 1 2 3 5
8 9 9 9 9 9 9 9 9 10 11 13 15 16 18 19 19 18 18 18 17 16 15 15 14 13 12 10 9 9 9 10 12 13 15 16 17 17 18 19 19 19 20 20 19 17 16 15 13 10 6 4 2 1 0 -1 -2 -2 -2 -2 -2 -3 -4 -4 -2 -1 2 4 6
7 7 8 8 8 8 9 9 11 12 14 15 17 18 19 19 18 18 17 16 15 14 13 12 11 9 8 8 8 9 10 12 14 15 15 17 18 18 18 19 19 19 20 21 20 19 17 15 13 10 7 4 3 2 2 1 1 2 2 2 1 -1 -2 -3 -3 -2 -1 -0 -1
6 7 8 9 9 9 10 11 13 14 16 17 17 18 18 18 17 16 15 13 12 11 10 8 7 6 6 7 9 11 12 14 15 16 17 18 19 19 19 19 19 20 20 20 20 19 17 16 14 12 11 10 8 8 8 9 10 10 10 10 8 6 4 2 1 -0 -0 -0 0
7 9 9 10 10 11 12 13 14 15 16 17 17 16 16 15 14 13 11 10 8 7 5 4 4 5 7 9 12 13 15 16 17 18 18 19 20 20 20 20 20 20 20 20 20 20 20 20 19 18 17 16 17 17 19 21 22 23 23 22 21 19 17 15 14 13 13 13 14
9 10 11 11 12 13 14 15 15 16 16 15 15 14 13 13 11 10 8 7 6 4 4 4 6 8 11 13 15 16 17 18 19 20 21 21 21 21 22 22 22 22 21 21 21 21 21 21 20 20 20 20 22 24 27 29 30 31 31 31 31 30 29 29 28 27 27 26 26
11 12 12 13 13 14 15 15 15 15 14 13 13 12 11 10 9 8 7 6 5 5 6 7 10 13 16 17 18 19 20 21 22 22 23 23 23 23 24 24 23 22 21 20 20 20 20 19 20 21 22 23 25 26 27 27 27 27 27 27 27 26 26 25 24 23 21 20 18
13 13 13 13 14 14 14 14 14 13 12 12 11 10 10 9 8 8 7 7 7 8 10 13 15 18 19 20 21 22 23 23 24 24 24 24 24 24 24 24 23 22 21 20 20 20 21 21 22 23 23 23 23 21 20 18 16 15 14 13 12 11 10 9 8 8 8 8 9
13 13 13 13 14 13 13 13 12 11 10 10 10 10 10 9 9 8 8 9 11 13 15 18 19 20 21 23 24 24 25 25 25 25 25 24 24 23 23 22 21 20 20 20 20 20 20 20 19 18 17 15 14 12 10 8 7 6 5 4 4 4 5 6 7 8 9 11 12
13 13 13 13 13 12 12 11 10 10 9 10 10 11 11 11 10 10 11 13 15 17 19 21 22 22 23 24 25 26 26 26 26 25 25 23 22 21 20 19 18 17 17 17 16 15 15 13 12 10 9 7 6 5 4 4 4 4 5 6 7 9 10 11 12 13 13 13 13
11 12 12 13 12 11 10 9 9 9 9 10 12 13 13 13 13 14 15 17 19 20 21 22 23 24 25 25 26 26 26 25 25 24 23 21 20 19 17 16 15 14 13 12 11 10 8 7 6 5 4 4 4 5 6 7 8 10 11 12 13 13 13 13 13 13 13 13 13
10 11 12 12 12 11 9 8 7 7 8 10 12 14 15 17 17 18 19 20 22 23 23 22 24 25 26 26 25 26 26 25 23 22 20 19 17 15 14 12 11 9 8 7 6 6 6 6 6 7 8 9 10 11 12 13 13 14 14 14 14 13 13 13 13 14 14 15 15
10 10 11 10 10 10 9 7 6 5 6 8 10 14 17 20 22 22 23 22 23 24 24 24 25 25 26 26 25 25 25 24 21 19 17 14 12 10 8 7 6 6 6 7 8 9 10 11 12 13 13 14 14 14 14 13 13 13 13 13 13 13 14 14 15 16 16 17 17
10 10 9 8 8 9 9 8 5 4 4 5 8 12 17 21 24 25 25 24 24 24 25 26 26 26 26 26 25 24 23 20 17 14 11 8 7 6 6 6 7 8 10 11 12 13 13 13 13 12 12 12 11 11 11 11 11 12 12 13 14 15 15 16 16 17 17 17 17
9 8 7 6 8 9 10 9 6 4 3 4 6 11 16 23 26 27 26 25 25 26 26 27 27 26 26 25 24 21 17 13 10 7 6 5 6 7 8 9 9 11 12 12 12 12 11 10 10 10 9 9 10 10 11 11 12 13 14 15 15 16 16 16 16 16 16 16 16
5 5 5 6 9 11 12 10 8 6 5 6 7 12 18 25 28 28 28 27 27 27 27 27 26 25 24 22 18 14 11 7 6 6 6 8 8 9 9 10 11 11 11 11 10 10 9 9 10 10 10 11 12 12 13 14 14 15 15 16 16 16 16 16 16 16 15 15 15
3 4 6 8 11 13 13 12 11 10 9 9 10 14 20 27 30 30 29 28 27 27 26 25 23 21 19 15 12 9 7 6 7 8 8 9 9 10 10 11 11 11 11 10 10 10 10 11 11 12 12 13 13 14 14 15 15 15 15 15 15 15 15 15 15 15 15 14 14
3 5 9 13 15 15 15 14 13 13 12 11 13 18 24 30 32 31 29 27 26 25 23 21 19 16 13 10 8 7 7 7 8 9 9 9 10 11 11 11 11 11 10 10 11 11 11 12 12 13 13 13 14 14 14 15 15 15 15 15 15 15 15 15 15 15 14 14 14
5 9 13 16 16 16 16 15 14 13 13 13 17 22 28 33 32 31 28 26 24 22 20 18 15 13 11 9 8 8 8 8 8 9 10 11 11 11 11 10 10 10 10 11 11 11 12 12 13 13 14 14 14 14 15 15 15 15 15 15 15 15 14 14 14 14 14 15 15
10 13 16 16 16 15 14 13 13 12 13 15 21 26 31 33 32 30 27 25 22 20 18 16 13 11 9 8 8 8 9 9 10 10 10 10 10 10 9 9 10 10 11 11 12 12 13 13 14 14 14 14 14 14 14 14 14 14 14 14 14 14 14 14 14 14 15 16 17
14 15 15 14 13 13 12 11 11 12 15 19 24 29 32 34 32 29 26 23 21 18 16 13 11 10 9 8 8 8 9 9 9 9 9 9 9 9 9 10 10 11 12 12 13 13 14 14 14 14 14 14 14 14 14 14 14 14 13 13 13 13 14 14 14 15 16 17 18
14 14 12 11 10 10 9 9 11 14 17 22 28 31 33 33 30 27 25 22 19 16 14 11 10 9 8 8 8 8 8 8 8 8 8 8 9 9 10 11 11 12 13 13 14 14 14 14 14 14 14 14 14 13 13 13 13 13 13 13 13 13 14 15 16 17 18 20 21
13 11 10 8 8 8 8 10 13 17 21 27 31 33 33 31 28 26 23 20 17 14 12 10 9 8 7 8 8 8 8 8 8 8 8 9 10 10 11 12 13 13 14 14 14 14 14 14 14 14 14 13 13 13 12 12 12 12 12 12 13 14 15 16 18 20 22 24 25
11 9 7 6 6 7 9 12 16 21 26 31 33 33 32 29 26 23 20 17 15 12 10 8 8 7 8 8 8 8 8 8 8 9 9 10 10 11 12 13 13 14 14 14 14 14 14 14 14 13 13 12 12 12 12 12 12 12 12 13 14 15 17 20 22 24 26 27 28
9 7 6 5 6 8 11 16 22 27 31 33 33 31 29 25 22 20 17 14 12 10 8 7 7 7 8 8 8 8 8 8 9 9 10 11 12 12 13 14 14 14 15 14 14 14 14 13 13 12 12 12 11 11 11 11 12 12 12 14 16 19 21 24 26 28 29 29 29
8 6 5 5 7 11 16 22 28 32 34 34 31 28 24 21 18 16 14 11 9 8 7 7 7 7 7 7 7 8 8 9 9 10 11 12 13 13 14 14 15 15 14 14 14 13 13 12 12 11 11 11 11 11 11 11 12 12 14 16 20 23 26 28 29 30 30 28 26
7 6 6 6 10 15 22 29 33 34 34 31 27 23 19 16 14 12 10 8 7 6 6 6 6 6 6 7 7 8 9 9 10 11 12 13 14 14 15 15 14 14 14 13 13 12 12 11 11 11 10 10 11 11 11 12 12 14 17 20 25 28 30 31 31 30 28 25 22
8 7 7 9 15 22 29 34 35 34 31 26 21 17 13 11 9 7 6 5 4 4 5 5 6 6 7 7 8 9 10 11 11 12 13 14 14 14 14 14 14 13 13 12 12 11 11 10 10 10 10 11 11 11 12 12 14 17 21 26 29 32 32 32 29 26 23 20 17
9 9 11 15 22 29 34 37 35 31 25 19 14 11 9 7 6 4 4 3 4 5 5 6 7 7 8 8 9 10 11 12 12 13 14 14 14 14 14 13 13 12 12 11 11 10 10 10 10 10 10 11 11 12 12 14 17 21 26 31 33 33 32 29 25 21 18 15 14
11 13 17 23 29 35 37 36 31 25 18 13 10 8 7 6 5 5 5 5 6 6 7 7 8 8 9 9 10 11 12 13 13 14 14 14 14 14 13 12 12 11 11 11 10 10 10 10 10 10 11 11 12 12 14 16 21 26 31 35 34 32 28 24 20 17 14 13 12
15 19 25 31 35 37 35 31 24 17 12 8 7 7 7 8 8 8 8 8 8 8 8 8 8 9 10 10 11 12 13 13 13 14 14 14 13 13 12 12 11 11 11 10 10 10 10 10 10 11 11 12 12 14 16 20 26 31 35 36 33 29 24 19 16 13 12 11 11
22 28 32 36 36 34 29 23 15 11 8 7 8 8 9 10 10 9 9 9 8 8 8 9 9 10 11 11 12 13 13 13 13 13 13 13 12 12 12 11 11 10 10 10 10 10 10 10 11 11 12 12 13 16 19 25 31 35 36 34 29 24 19 14 12 11 10 11 11
29 33 36 36 32 27 20 14 10 7 7 8 9 10 10 10 9 9 8 8 8 8 9 10 10 11 11 12 13 13 13 13 13 13 13 12 12 11 11 11 10 10 10 10 10 10 11 11 11 12 12 13 15 19 24 30 35 37 35 30 25 19 15 11 10 10 10 11 12
34 35 34 31 25 19 13 9 7 7 8 9 10 10 9 9 8 8 8 8 8 9 10 10 11 11 12 13 13 13 13 13 13 12 12 11 11 11 10 10 10 10 10 10 10 11 11 11 12 12 13 14 17 22 28 35 37 36 32 25 20 15 12 10 10 10 11 12 13
Height
5654 5652 5649 5646 5643 5641 5638 5635 5633 5630 5627 5624 5622 5620 5617 5615 5612 5610 5607 5605 5603 5600 5598 5595 5593 5590 5588 5586 5585 5583 5581 5580 5578 5576 5574 5572 5570 5568 5565 5563 5561 5559 5557 5555 5553 5552 5550 5549 5548 5546 5545 5543 5542 5541 5539 5538 5537 5536 5535 5534 5533 5532 5531 5530 5529 5528 5527 5525 5524
5650 5648 5645 5643 5639 5637 5634 5631 5628 5625 5623 5620 5618 5615 5613 5610 5607 5604 5602 5599 5597 5594 5592 5589 5587 5585 5583 5581 5579 5577 5576 5574 5572 5570 5568 5566 5564 5562 5560 5558 5556 5554 5552 5550 5548 5546 5545 5543 5542 5541 5540 5538 5537 5536 5534 5533 5533 5533 5531 5530 5529 5527 5526 5525 5523 5523 5522 5520 5519
5647 5644 5641 5638 5635 5633 5630 5627 5624 5621 5618 5616 5613 5610 5608 5605 5602 5599 5596 5593 5591 5588 5586 5584 5581 5579 5577 5575 5573 5571 5570 5568 5567 5565 5563 5561 5559 5557 5554 5553 5550 5548 5546 5544 5542 5541 5539 5538 5538 5536 5535 5533 5533 5532 5531 5530 5529 5528 5527 5525 5523 5522 5521 5520 5518 5518 5517 5516 5515
5643 5640 5637 5634 5631 5628 5625 5623 5620 5617 5614 5611 5608 5605 5603 5600 5597 5593 5591 5588 5585 5583 5580 5578 5576 5574 5572 5570 5568 5566 5564 5562 5561 5559 5557 5555 5553 5551 5549 5547 5545 5543 5541 5539 5537 5536 5535 5533 5532 5531 5530 5529 5528 5527 5526 5524 5523 5523 5521 5520 5518 5518 5517 5515 5514 5513 5512 5511 5510
5638 5635 5633 5630 5627 5623 5621 5618 5615 5612 5609 5606 5603 5600 5597 5595 5592 5588 5585 5583 5580 5578 5575 5573 5570 5568 5567 5565 5563 5561 5558 5557 5555 5553 5551 5549 5547 5546 5544 5542 5540 5538 5536 5534 5533 5532 5531 5529 5528 5527 5525 5524 5523 5523 5521 5520 5519 5518 5517 5515 5514 5513 5512 5511 5509 5508 5507 5506 5505
5633 5631 5628 5625 5622 5619 5616 5613 5610 5608 5604 5602 5598 5595 5592 5589 5586 5583 5580 5578 5575 5572 5570 5568 5565 5563 5561 5559 5558 5556 5554 5552 5550 5548 5546 5544 5542 5540 5538 5536 5534 5532 5530 5529 5528 5527 5526 5525 5523 5522 5521 5520 5519 5518 5517 5516 5515 5513 5512 5511 5509 5508 5507 5505 5504 5503 5502 5500 5499
5629 5626 5623 5620 5617 5614 5611 5608 5605 5602 5599 5596 5593 5591 5587 5584 5581 5578 5575 5572 5570 5567 5565 5562 5560 5558 5556 5554 5553 5551 5549 5547 5545 5543 5541 5538 5536 5534 5532 5530 5528 5527 5525 5524 5523 5522 5520 5519 5518 5517 5516 5515 5513 5512 5511 5510 5509 5508 5507 5505 5504 5503 5501 5500 5498 5498 5497 5495 5494
5624 5621 5618 5615 5612 5609 5606 5602 5599 5597 5594 5591 5588 5585 5582 5579 5576 5573 5570 5567 5564 5562 5560 5557 5555 5553 5551 5549 5547 5545 5543 5542 5539 5537 5535 5533 5530 5528 5526 5524 5523 5521 5520 5518 5517 5516 5514 5513 5512 5511 5510 5509 5508 5507 5505 5504 5503 5502 5501 5500 5498 5497 5496 5494 5493 5492 5491 5490 5489
5618 5615 5612 5609 5607 5604 5601 5597 5594 5592 5589 5586 5583 5580 5577 5574 5571 5568 5564 5562 5559 5557 5554 5552 5550 5548 5545 5543 5542 5539 5538 5536 5533 5531 5529 5527 5524 5522 5520 5518 5517 5515 5513 5512 5511 5509 5508 5507 5506 5505 5504 5503 5502 5501 5499 5498 5497 5496 5495 5494 5493 5491 5490 5489 5488 5487 5485 5484 5484
5613 5609 5606 5603 5601 5598 5595 5592 5589 5586 5584 5581 5578 5575 5572 5569 5566 5563 5560 5557 5554 5551 5549 5547 5545 5543 5540 5538 5536 5533 5531 5529 5527 5525 5523 5520 5518 5516 5514 5512 5510 5509 5507 5506 5504 5503 5502 5501 5501 5499 5498 5497 5496 5494 5493 5492 5491 5490 5488 5488 5487 5486 5484 5483 5482 5481 5479 5478 5478
5607 5604 5600 5597 5595 5592 5589 5587 5583 5581 5578 5576 5573 5570 5567 5564 5561 5558 5554 5552 5549 5547 5544 5542 5539 5537 5534 5532 5530 5527 5525 5523 5520 5518 5516 5514 5512 5510 5508 5506 5504 5503 5501 5499 5498 5497 5496 5495 5494 5493 5492 5490 5489 5488 5487 5485 5485 5484 5483 5482 5481 5480 5479 5477 5476 5475 5473 5472 5471
5602 5598 5595 5592 5589 5587 5584 5581 5578 5576 5573 5570 5568 5565 5562 5558 5555 5552 5549 5546 5544 5541 5539 5536 5534 5531 5528 5526 5523 5521 5518 5516 5514 5512 5510 5508 5505 5503 5501 5499 5498 5496 5494 5493 5492 5491 5490 5489 5488 5487 5486 5484 5483 5482 5481 5480 5479 5478 5477 5476 5475 5474 5473 5472 5470 5469 5468 5466 5466
5597 5593 5590 5586 5583 5581 5578 5576 5573 5570 5568 5565 5562 5559 5556 5553 5549 5546 5543 5540 5538 5535 5533 5530 5528 5525 5523 5520 5517 5514 5512 5509 5507 5505 5503 5501 5499 5497 5495 5493 5491 5490 5488 5487 5486 5485 5484 5483 5482 5481 5480 5479 5478 5477 5475 5474 5473 5472 5471 5470 5469 5468 5468 5466 5465 5464 5463 5461 5460
5592 5588 5585 5581 5578 5575 5573 5570 5567 5565 5562 5559 5556 5553 5550 5547 5543 5540 5537 5534 5532 5529 5527 5524 5521 5519 5516 5513 5511 5508 5506 5503 5501 5498 5496 5494 5493 5491 5489 5487 5486 5484 5483 5482 5480 5479 5478 5477 5476 5475 5474 5473 5472 5471 5470 5469 5468 5467 5466 5465 5464 5463 5463 5461 5460 5458 5457 5456 5455
5586 5583 5580 5577 5573 5570 5567 5564 5562 5559 5556 5553 5550 5548 5544 5541 5538 5534 5531 5528 5525 5523 5520 5518 5515 5512 5509 5507 5504 5502 5499 5497 5494 5492 5490 5488 5487 5485 5483 5482 5481 5479 5478 5477 5476 5475 5473 5473 5471 5470 5469 5468 5467 5466 5465 5464 5463 5462 5461 5460 5459 5458 5457 5456 5454 5453 5452 5450 5449
5581 5577 5574 5571 5568 5565 5562 5559 5556 5553 5550 5548 5544 5542 5539 5535 5532 5529 5526 5522 5519 5516 5513 5511 5508 5506 5503 5500 5498 5496 5493 5491 5488 5487 5485 5483 5481 5480 5479 5478 5476 5475 5473 5473 5471 5470 5469 5468 5467 5465 5464 5463 5462 5461 5460 5459 5458 5457 5456 5455 5454 5453 5451 5450 5449 5447 5446 5444 5443
5575 5572 5569 5566 5563 5560 5556 5553 5550 5547 5544 5542 5538 5536 5533 5530 5526 5523 5520 5517 5514 5511 5508 5505 5502 5500 5497 5494 5492 5490 5488 5485 5483 5482 5480 5478 5477 5476 5474 5473 5472 5470 5469 5468 5467 5466 5464 5463 5462 5461 5459 5458 5457 5456 5455 5454 5453 5452 5450 5449 5448 5447 5445 5444 5443 5441 5439 5438 5437
5569 5566 5563 5560 5557 5554 5551 5548 5544 5541 5538 5535 5533 5529 5526 5523 5520 5517 5514 5511 5508 5505 5502 5499 5496 5494 5491 5489 5486 5484 5483 5481 5479 5477 5476 5474 5473 5471 5470 5469 5467 5466 5465 5463 5462 5461 5460 5458 5457 5456 5454 5453 5452 5451 5450 5449 5448 5446 5445 5443 5442 5441 5439 5438 5436 5435 5433 5432 5430
5563 5560 5557 5554 5551 5548 5545 5542 5538 5535 5532 5529 5526 5523 5520 5517 5514 5511 5508 5505 5502 5500 5497 5494 5491 5488 5486 5484 5482 5479 5478 5476 5475 5473 5471 5470 5468 5467 5466 5464 5463 5461 5460 5459 5458 5456 5455 5453 5452 5451 5450 5448 5447 5446 5445 5443 5442 5441 5439 5438 5437 5435 5433 5432 5430 5428 5427 5425 5424
5557 5554 5551 5548 5545 5542 5539 5536 5533 5529 5526 5523 5520 5517 5514 5511 5508 5505 5502 5499 5496 5494 5491 5488 5486 5483 5481 5479 5477 5475 5473 5471 5470 5468 5467 5465 5464 5463 5461 5460 5458 5457 5456 5454 5453 5452 5450 5449 5448 5446 5445 5444 5442 5441 5439 5438 5437 5435 5434 5432 5431 5429 5428 5426 5424 5423 5421 5419 5418
5551 5548 5545 5542 5539 5536 5533 5530 5527 5523 5520 5517 5514 5511 5508 5505 5502 5498 5496 5493 5490 5488 5485 5483 5480 5478 5476 5473 5472 5470 5468 5466 5465 5463 5462 5461 5459 5458 5457 5456 5454 5453 5451 5450 5448 5447 5446 5444 5443 5441 5440 5438 5437 5436 5434 5433 5431 5430 5428 5426 5425 5423 5421 5420 5418 5416 5415 5413 5412
5545 5542 5539 5536 5533 5530 5527 5524 5521 5518 5515 5512 5508 5505 5502 5498 5495 5492 5489 5487 5484 5481 5479 5477 5474 5472 5470 5468 5467 5465 5463 5462 5461 5459 5458 5457 5456 5454 5453 5452 5450 5448 5447 5445 5444 5442 5441 5439 5438 5436 5435 5433 5432 5430 5429 5427 5425 5424 5422 5421 5419 5417 5415 5414 5412 5410 5409 5407 5406
5539 5535 5532 5530 5527 5524 5521 5518 5515 5512 5509 5506 5503 5499 5496 5493 5489 5486 5483 5480 5478 5475 5473 5471 5469 5467 5465 5464 5463 5461 5460 5458 5457 5456 5454 5453 5452 5450 5448 5447 5446 5444 5442 5441 5439 5437 5436 5434 5433 5431 5430 5428 5426 5425 5423 5422 5420 5418 5417 5415 5413 5412 5410 5408 5407 5405 5403 5402 5400
5533 5529 5526 5523 5521 5518 5515 5512 5509 5506 5503 5500 5497 5493 5490 5487 5483 5480 5478 5475 5472 5470 5468 5466 5464 5463 5462 5460 5459 5458 5456 5455 5453 5452 5451 5449 5448 5446 5444 5443 5441 5439 5438 5436 5434 5432 5431 5429 5428 5426 5424 5423 5421 5419 5418 5416 5414 5413 5411 5409 5408 5407 5405 5403 5402 5400 5398 5396 5394
5527 5524 5521 5518 5514 5512 5508 5506 5503 5500 5497 5494 5491 5488 5484 5481 5478 5475 5473 5470 5468 5466 5464 5463 5461 5459 5458 5457 5455 5454 5452 5451 5449 5448 5447 5445 5443 5442 5440 5438 5437 5435 5433 5431 5429 5427 5426 5424 5423 5421 5419 5418 5416 5414 5413 5411 5409 5408 5406 5404 5403 5401 5400 5398 5397 5395 5393 5391 5389
5522 5518 5515 5512 5509 5506 5503 5500 5497 5494 5491 5488 5485 5482 5479 5476 5474 5471 5468 5466 5464 5462 5461 5459 5458 5456 5455 5453 5452 5450 5448 5447 5445 5444 5443 5441 5439 5438 5436 5434 5432 5430 5428 5426 5424 5423 5421 5419 5417 5416 5414 5412 5411 5409 5408 5406 5404 5403 5401 5399 5398 5396 5395 5393 5392 5390 5388 5386 5384
5517 5514 5510 5507 5504 5501 5498 5495 5492 5489 5486 5483 5481 5478 5475 5472 5470 5467 5465 5463 5461 5459 5457 5456 5454 5453 5451 5449 5448 5446 5444 5443 5441 5440 5438 5437 5435 5433 5432 5430 5428 5426 5423 5422 5420 5418 5416 5414 5413 5411 5409 5407 5406 5404 5403 5401 5399 5398 5396 5394 5393 5391 5390 5388 5387 5385 5383 5381 5378
5513 5510 5506 5503 5500 5497 5493 5490 5488 5484 5482 5479 5476 5473 5471 5468 5466 5464 5462 5460 5458 5456 5454 5453 5451 5449 5448 5446 5444 5443 5441 5439 5437 5436 5434 5433 5431 5429 5427 5425 5423 5421 5419 5417 5415 5413 5411 5409 5408 5406 5404 5402 5401 5399 5398 5396 5394 5393 5391 5390 5388 5386 5384 5383 5381 5379 5377 5375 5373
5509 5506 5502 5499 5495 5492 5489 5486 5483 5480 5478 5475 5472 5469 5467 5464 5463 5460 5458 5456 5454 5453 5451 5449 5447 5446 5444 5442 5440 5439 5437 5435 5433 5432 5430 5428 5427 5425 5423 5421 5419 5417 5414 5413 5410 5408 5407 5405 5403 5401 5399 5398 5396 5394 5393 5391 5390 5388 5386 5385 5383 5381 5379 5377 5375 5373 5371 5369 5368
5505 5502 5498 5495 5491 5488 5485 5482 5479 5476 5473 5470 5468 5465 5463 5461 5459 5457 5455 5453 5451 5449 5448 5446 5444 5442 5440 5439 5437 5435 5433 5432 5430 5428 5426 5424 5423 5421 5419 5417 5414 5412 5410 5408 5406 5404 5402 5400 5398 5396 5395 5393 5391 5389 5388 5386 5385 5383 5381 5379 5378 5375 5373 5371 5369 5367 5365 5363 5362
5501 5498 5494 5491 5488 5484 5481 5478 5475 5472 5469 5466 5463 5461 5459 5457 5455 5453 5451 5449 5448 5446 5444 5442 5440 5439 5437 5435 5433 5432 5430 5428 5426 5424 5422 5420 5418 5416 5414 5412 5409 5407 5405 5403 5401 5399 5397 5395 5393 5392 5390 5388 5386 5385 5383 5381 5380 5378 5376 5374 5372 5370 5368 5366 5364 5362 5360 5358 5357
5497 5493 5490 5487 5483 5480 5477 5473 5470 5467 5464 5462 5459 5458 5455 5453 5452 5450 5448 5446 5444 5442 5440 5438 5437 5435 5433 5431 5429 5428 5426 5423 5421 5419 5418 5415 5413 5412 5409 5407 5405 5403 5401 5399 5397 5395 5393 5391 5389 5387 5385 5383 5382 5380 5378 5376 5374 5373 5371 5369 5367 5365 5363 5360 5358 5357 5355 5354 5353
5492 5488 5485 5482 5479 5476 5472 5469 5466 5463 5460 5458 5455 5453 5452 5450 5448 5446 5444 5442 5440 5438 5437 5435 5433 5431 5429 5427 5425 5423 5421 5419 5417 5415 5413 5411 5409 5407 5405 5403 5400 5398 5396 5394 5392 5390 5388 5386 5384 5382 5380 5378 5377 5375 5373 5372 5370 5368 5366 5364 5362 5360 5358 5356 5354 5353 5351 5350 5349
5487 5484 5481 5478 5474 5471 5468 5464 5461 5458 5456 5453 5451 5449 5448 5446 5444 5442 5440 5438 5436 5434 5433 5431 5429 5427 5425 5423 5421 5419 5417 5415 5413 5411 5408 5406 5404 5403 5400 5398 5396 5393 5391 5389 5387 5385 5383 5381 5379 5378 5376 5374 5372 5370 5368 5367 5365 5363 5361 5359 5357 5355 5353 5351 5350 5348 5348 5347 5346
5482 5479 5476 5473 5469 5466 5463 5460 5457 5454 5452 5449 5447 5445 5443 5441 5439 5437 5435 5433 5432 5430 5428 5426 5424 5422 5420 5418 5416 5414 5412 5410 5408 5406 5404 5402 5400 5398 5396 5393 5391 5389 5387 5384 5383 5380 5378 5377 5375 5373 5371 5369 5368 5366 5364 5362 5361 5359 5357 5355 5353 5351 5349 5347 5346 5345 5344 5343 5343
5477 5474 5471 5468 5464 5461 5458 5455 5453 5450 5448 5445 5443 5441 5439 5437 5434 5433 5431 5429 5427 5425 5423 5422 5419 5418 5416 5413 5412 5410 5408 5406 5403 5402 5399 5398 5395 5393 5391 5389 5387 5384 5382 5380 5378 5376 5374 5372 5370 5368 5367 5365 5363 5361 5360 5358 5356 5354 5353 5350 5348 5347 5345 5344 5343 5342 5341 5341 5340
5471 5468 5465 5462 5459 5456 5453 5450 5448 5446 5443 5441 5439 5437 5435 5433 5430 5428 5426 5425 5423 5421 5419 5418 5416 5413 5411 5409 5407 5405 5403 5401 5399 5397 5395 5393 5391 5389 5387 5385 5383 5380 5378 5376 5373 5372 5370 5368 5366 5364 5362 5360 5359 5357 5355 5353 5352 5350 5348 5346 5345 5343 5342 5341 5340 5339 5339 5338 5337
5465 5462 5459 5456 5453 5450 5448 5446 5443 5441 5439 5437 5435 5433 5431 5429 5427 5425 5423 5421 5420 5418 5416 5414 5412 5409 5407 5405 5403 5401 5399 5397 5394 5393 5391 5388 5387 5385 5383 5380 5378 5376 5374 5372 5369 5367 5365 5363 5361 5359 5358 5356 5354 5353 5351 5349 5348 5346 5344 5343 5341 5340 5339 5338 5338 5337 5336 5335 5334
5459 5456 5453 5450 5448 5445 5443 5441 5439 5437 5435 5433 5432 5430 5428 5426 5424 5422 5420 5418 5416 5414 5412 5410 5408 5405 5403 5401 5399 5397 5395 5393 5390 5388 5386 5384 5382 5380 5378 5376 5374 5372 5370 5367 5365 5363 5361 5359 5357 5355 5353 5351 5350 5348 5347 5345 5344 5342 5340 5339 5338 5337 5337 5336 5335 5334 5333 5333 5332
5454 5451 5448 5445 5443 5441 5439 5437 5435 5433 5432 5430 5428 5426 5424 5423 5420 5418 5416 5414 5412 5409 5408 5405 5403 5401 5399 5397 5395 5393 5391 5388 5386 5384 5382 5380 5378 5376 5374 5372 5370 5368 5366 5363 5361 5359 5357 5355 5353 5351 5349 5347 5345 5344 5343 5341 5340 5338 5337 5336 5335 5335 5334 5333 5333 5332 5331 5330 5329
5449 5447 5444 5442 5439 5438 5436 5434 5432 5430 5428 5426 5424 5422 5420 5418 5416 5414 5412 5409 5407 5405 5403 5401 5399 5397 5394 5393 5390 5388 5387 5384 5382 5380 5378 5376 5373 5372 5370 5368 5366 5363 5361 5359 5357 5354 5352 5350 5348 5346 5344 5343 5341 5340 5338 5337 5336 5335 5334 5333 5333 5332 5332 5331 5330 5329 5328 5328 5327